TimeCST,TemperatureF,Dew PointF,Humidity,Sea Level PressureIn,VisibilityMPH,Wind Direction,Wind SpeedMPH,Gust SpeedMPH,PrecipitationIn,Events,Conditions,WindDirDegrees,DateUTC
12:53 AM,69.1,66.9,93,30.16,10.0,NE,4.6,-,0.00,Rain,Light Rain,50,2012-11-16 06:53:00
1:41 AM,69.8,66.2,88,30.17,10.0,NE,6.9,-,0.00,,Overcast,40,2012-11-16 07:41:00
1:53 AM,69.1,66.9,93,30.17,10.0,NNE,5.8,-,0.00,,Overcast,30,2012-11-16 07:53:00
2:53 AM,69.1,66.9,93,30.15,10.0,NE,6.9,-,0.00,,Overcast,40,2012-11-16 08:53:00
3:43 AM,69.8,66.2,88,30.15,10.0,NE,12.7,-,N/A,,Overcast,50,2012-11-16 09:43:00
3:53 AM,69.1,66.9,93,30.15,10.0,NE,11.5,-,N/A,,Overcast,50,2012-11-16 09:53:00
4:53 AM,69.1,66.9,93,30.15,10.0,NE,8.1,-,N/A,,Overcast,50,2012-11-16 10:53:00
5:53 AM,69.1,64.9,87,30.17,10.0,NNE,5.8,-,N/A,,Overcast,30,2012-11-16 11:53:00
6:33 AM,69.8,64.4,83,30.17,10.0,ENE,9.2,-,N/A,,Overcast,60,2012-11-16 12:33:00
6:53 AM,70.0,64.0,81,30.17,10.0,ENE,10.4,-,N/A,,Overcast,60,2012-11-16 12:53:00
7:53 AM,70.0,63.0,78,30.19,10.0,ENE,8.1,-,N/A,,Overcast,60,2012-11-16 13:53:00
8:53 AM,71.1,63.0,75,30.22,10.0,ENE,10.4,-,N/A,,Overcast,60,2012-11-16 14:53:00
9:53 AM,73.9,63.0,68,30.24,10.0,NE,12.7,-,N/A,,Overcast,50,2012-11-16 15:53:00
10:53 AM,75.0,61.0,62,30.24,10.0,NE,12.7,23.0,N/A,,Overcast,50,2012-11-16 16:53:00
11:53 AM,75.9,60.1,58,30.23,10.0,NE,17.3,21.9,N/A,,Overcast,50,2012-11-16 17:53:00
12:53 PM,77.0,59.0,54,30.20,10.0,NE,16.1,24.2,N/A,,Mostly Cloudy,50,2012-11-16 18:53:00
1:53 PM,75.9,57.9,54,30.19,10.0,NE,13.8,23.0,N/A,,Overcast,40,2012-11-16 19:53:00
2:53 PM,73.9,59.0,59,30.19,10.0,NE,10.4,-,N/A,,Overcast,50,2012-11-16 20:53:00
3:53 PM,72.0,57.0,59,30.20,10.0,NE,13.8,21.9,N/A,,Overcast,50,2012-11-16 21:53:00
4:53 PM,72.0,57.0,59,30.21,10.0,NE,10.4,-,N/A,,Overcast,50,2012-11-16 22:53:00
5:53 PM,71.1,57.0,61,30.22,10.0,NE,6.9,16.1,N/A,,Overcast,40,2012-11-16 23:53:00
6:53 PM,70.0,57.0,63,30.24,10.0,NNE,8.1,-,N/A,,Overcast,30,2012-11-17 00:53:00
7:53 PM,69.1,57.0,65,30.24,10.0,NE,5.8,-,N/A,,Overcast,40,2012-11-17 01:53:00
8:53 PM,69.1,57.0,65,30.26,10.0,NNE,4.6,-,N/A,,Overcast,30,2012-11-17 02:53:00
9:53 PM,69.1,57.9,68,30.27,10.0,North,4.6,-,N/A,,Overcast,10,2012-11-17 03:53:00
10:53 PM,68.0,57.0,68,30.27,10.0,North,4.6,-,N/A,,Overcast,360,2012-11-17 04:53:00
11:53 PM,66.9,57.0,70,30.26,10.0,North,4.6,-,N/A,,Overcast,350,2012-11-17 05:53:00